Location: Dürabuch
(48.2640°N, 11.2185°E)
Time: 02:14:42
(UTC+00:00)

Meteor 1-21 - Pass Details

Date: 23 May 2024
Orbit: 845 x 886 km, 81.2° (Epoch: 13 June)

Event Time Altitude Azimuth Distance (km) Brightness Sun altitude
Exits shadow 00:04:42 38° 179° (S) 1,302 4.7 -20.1°
Maximum altitude 00:07:00 79° 100° (E) 887 4.2 -20.0°
Drops below altitude 10° 00:12:46 10° 14° (NNE) 2,532 7.9 -19.8°
Sets 00:15:14 0° 13° (NNE) 3,481 9.1 -19.7°
